Hourly Data Report for October 01, 2018

MUSKOKA
ONTARIO
Current Station Operator: NAVCAN

44°58'29.000" N
79°18'12.000" W
281.90 m
6115529
71532
YQA

Download Data

Hourly Data (October 2018)
Hourly Data Report for October 1, 2018
TIME
LST
Temp Definition
°C
Dew Point Definition
°C
Rel Hum Definition
%
Precip. Amount Definition
mm

Wind Dir Definition
10's deg

Wind Spd Definition
km/h
Visibility Definition
km
Stn Press Definition
kPa
Hmdx Definition


Wind Chill Definition


Weather Definition


00:00 6.1 5.4 95 0.2 LegendMM 4 16.1 99.17     Rain
01:00 5.5 5.1 97 0.0   0 16.1 99.22     LegendNANA
02:00 5.6 4.5 93 0.0   0 16.1 99.24     LegendNANA
03:00 5.6 4.4 92 0.0 LegendMM 4 16.1 99.25     LegendNANA
04:00 5.3 4.7 96 0.0 LegendMM 4 16.1 99.23     LegendNANA
05:00 5.6 5.2 97 0.5   0 16.1 99.34     Rain
06:00 5.7 5.3 97 0.2   0 16.1 99.40     LegendNANA
07:00 5.6 5.3 98 0.0 LegendMM 4 16.1 99.45     LegendNANA
08:00 6.3 5.1 92 0.0   0 16.1 99.49     LegendNANA
09:00 7.7 5.5 86 0.0 2 5 16.1 99.52     LegendNANA
10:00 9.4 5.4 76 0.0 8 8 16.1 99.52     LegendNANA
11:00 10.4 4.4 66 0.0 9 11 16.1 99.50     LegendNANA
12:00 11.7 5.2 64 0.0 11 9 16.1 99.47     LegendNANA
13:00 12.3 4.1 57 0.0 LegendMM 9 16.1 99.41     LegendNANA
14:00 12.5 4.2 57 0.0 8 5 16.1 99.36     LegendNANA
15:00 13.0 3.5 52 0.0 10 5 16.1 99.31     LegendNANA
16:00 12.1 5.9 65 0.0 14 9 16.1 99.26     LegendNANA
17:00 11.3 5.9 69 0.0 13 8 16.1 99.21     LegendNANA
18:00 10.4 6.4 76 0.0 13 9 16.1 99.15     LegendNANA
19:00 9.7 6.4 80 0.0 11 5 16.1 99.12     LegendNANA
20:00 9.3 6.8 84 0.0 LegendMM 4 16.1 99.15     Rain
21:00 9.0 7.3 89 0.0   0 16.1 99.15     Rain
22:00 8.0 6.5 90 1.5 8 5 14.5 99.14     Rain
23:00 7.4 6.5 94 1.8 8 5 16.1 99.00     Rain

Notes on Data Quality.

Legend

  • E = Estimated
  • M = Missing
  • NA = Not Available*
  • [empty] = Indicates an unobserved value
Date modified: